RH
53 50 51 51 48 42 40 37 34 33 32 31 31 30 30 30 32 35 35 33 33 33 33 31 30 31 31 31 33 35 37 41 43 44 46 45 39 33 29 26 21 20 25 27 27 24 20 19 19 21 22 22 24 23 21 20 19 18 18 18 18 19 20 20 19 18 18 17 18 18 17 17 17 17 17 16 17 17 19 21 20 18 18 18 18
53 50 50 50 46 41 39 37 35 34 32 32 31 31 30 31 32 35 36 34 34 33 34 34 33 32 32 32 33 34 34 37 41 43 46 47 44 38 32 30 25 23 30 33 33 31 25 21 19 18 19 21 23 23 20 20 19 19 18 18 18 19 20 20 20 19 18 17 18 18 17 17 17 16 17 16 17 18 18 19 19 18 18 18 18
54 50 50 49 44 41 40 38 36 34 33 33 32 33 32 32 32 34 36 35 34 35 35 36 36 35 34 33 32 31 32 33 35 41 47 47 46 45 38 34 33 30 32 36 38 35 30 25 22 18 17 19 22 23 20 20 19 19 18 18 19 19 20 20 20 19 19 18 18 18 18 17 17 16 16 16 17 17 18 18 18 18 17 17 17
54 50 49 49 44 42 41 39 36 34 34 34 34 34 33 32 32 33 36 36 36 36 37 38 38 37 36 35 33 30 30 33 33 38 46 46 46 51 46 40 40 39 35 37 39 38 34 30 26 21 18 17 20 23 21 20 20 19 19 18 19 20 21 21 21 22 22 22 20 19 21 20 17 17 16 16 17 17 17 18 18 17 17 17 17
52 49 50 49 44 43 41 38 37 36 35 34 34 35 35 32 31 32 34 35 36 37 37 38 38 38 37 37 34 31 31 33 34 35 40 44 47 54 53 46 46 46 41 41 42 41 38 33 30 27 23 18 19 22 21 20 20 20 19 19 20 20 21 22 24 25 27 28 27 26 25 22 18 17 16 17 16 17 17 17 18 17 17 16 16
50 50 53 48 44 43 41 39 38 37 36 35 35 36 35 32 32 31 32 33 33 35 36 37 38 38 37 35 32 32 34 34 35 34 35 38 44 53 58 54 51 51 50 48 46 44 40 36 36 35 33 27 21 22 21 20 20 20 20 20 20 21 24 25 28 30 34 35 36 36 33 26 21 18 16 17 16 17 17 17 17 17 17 16 16
50 53 52 46 43 42 42 40 38 38 37 36 36 37 36 34 33 33 33 33 33 34 34 36 36 36 35 34 33 35 37 37 37 35 33 34 38 48 58 61 58 56 55 53 51 48 43 39 40 41 41 35 24 20 22 20 20 20 20 21 21 23 26 28 32 35 37 38 38 40 39 31 25 22 17 16 16 17 17 18 18 17 17 16 16
52 52 49 45 42 42 42 39 38 38 38 38 37 37 35 35 35 35 35 35 34 33 34 34 34 34 35 36 37 39 40 40 38 37 35 34 36 41 50 59 61 58 55 54 54 50 44 41 41 45 44 39 27 19 21 21 20 20 20 21 21 24 29 31 35 37 37 38 40 40 39 34 30 27 20 16 16 17 18 18 18 17 17 16 16
51 49 46 45 43 41 41 40 40 39 39 39 38 37 36 35 36 37 37 37 35 33 33 32 33 34 36 38 40 42 42 40 38 36 35 33 32 36 44 52 56 56 53 50 49 47 44 42 43 47 45 40 32 21 19 21 20 20 21 22 22 26 30 33 34 36 37 38 41 39 38 36 33 28 20 16 16 16 17 18 19 18 17 17 16
49 46 45 44 43 42 42 43 42 41 40 39 39 39 37 36 36 38 38 37 35 33 32 31 32 34 36 38 40 42 42 40 38 35 32 31 31 35 42 47 49 49 47 42 42 44 47 47 44 45 44 41 35 24 19 19 20 20 22 22 22 26 30 31 34 36 37 40 41 39 38 36 31 28 21 16 16 16 18 18 19 19 18 17 16
49 47 45 44 44 43 43 45 45 42 41 40 41 40 38 37 37 38 38 38 36 33 32 32 33 35 37 38 39 40 40 39 39 38 35 34 35 39 45 46 46 45 43 39 38 41 46 48 44 41 41 39 37 29 22 19 20 20 21 23 22 25 29 31 35 37 38 40 41 38 37 37 35 31 22 16 16 16 17 18 18 18 18 18 17
52 50 46 45 45 44 45 45 46 44 42 42 42 42 40 39 39 38 38 38 35 34 34 34 35 36 37 38 37 36 37 38 39 42 41 40 40 41 46 49 48 46 42 39 37 38 40 43 44 42 39 38 36 31 26 21 20 20 21 24 23 25 29 32 34 36 39 40 39 37 36 37 37 30 20 16 16 16 17 17 18 19 19 19 18
55 51 48 47 46 45 45 46 46 46 44 43 43 43 42 41 40 39 38 37 36 35 36 36 36 37 37 37 35 34 35 38 41 42 43 44 44 43 46 48 49 50 47 43 39 37 37 38 43 45 41 39 37 32 27 23 20 20 22 25 24 26 30 32 34 36 39 39 39 40 38 38 36 27 19 16 16 16 16 17 18 19 19 19 19
56 53 50 48 47 46 45 46 47 48 47 45 45 44 43 42 41 40 38 38 37 38 38 38 38 38 38 38 35 33 35 38 41 42 43 45 46 47 47 46 48 50 51 51 45 41 42 38 36 40 39 37 36 32 25 21 21 20 22 25 25 28 31 33 34 35 38 40 41 42 39 38 33 24 18 17 16 16 17 17 18 19 19 19 20
55 53 50 48 48 46 46 47 48 49 49 47 46 45 44 44 42 41 40 40 40 40 41 41 41 42 41 40 38 34 35 38 40 42 44 45 46 48 50 49 48 49 51 53 51 50 51 43 33 34 38 34 31 33 31 23 20 21 23 24 25 29 32 33 33 34 37 38 40 41 39 35 28 22 19 17 17 16 17 17 17 18 20 20 20
54 53 51 49 49 48 48 48 48 48 48 47 46 45 45 44 43 42 42 43 43 42 43 44 44 45 45 45 43 39 39 40 42 43 44 45 45 47 48 50 50 49 50 50 51 53 53 47 37 33 39 38 31 33 37 31 23 21 22 23 25 29 32 33 34 34 36 37 40 42 40 36 29 23 20 19 17 17 18 17 17 18 20 20 20
55 55 51 50 49 49 49 47 45 46 47 45 43 44 45 45 44 44 44 45 45 44 44 46 46 46 46 48 46 44 45 47 48 45 44 46 45 45 45 47 49 48 49 49 49 51 50 47 42 37 39 41 35 33 37 37 31 22 22 23 24 30 35 35 35 36 36 36 40 42 40 36 29 23 21 19 19 18 18 18 18 18 19 20 20
56 54 50 48 49 50 50 47 44 45 46 44 42 43 43 43 44 44 45 45 46 46 46 46 47 48 48 48 48 48 50 52 52 45 41 45 46 45 44 45 46 45 46 47 48 50 47 43 44 40 38 41 39 35 35 38 36 28 23 23 26 32 36 35 35 36 35 35 40 42 39 35 28 22 21 21 19 19 18 19 18 18 19 19 19
55 53 50 49 51 51 49 47 44 45 46 46 46 45 43 43 44 44 42 42 44 45 45 45 46 48 48 48 48 51 53 51 51 46 42 44 47 45 44 44 42 43 46 47 49 50 47 41 43 41 36 39 41 38 36 36 38 37 28 24 27 31 34 35 35 35 33 34 40 43 40 38 31 23 21 21 20 19 19 19 18 18 18 19 18
55 53 52 52 55 53 49 48 45 46 47 47 49 48 45 44 44 43 41 41 42 44 44 44 44 46 47 46 47 51 53 53 53 51 49 50 51 48 45 44 42 45 50 50 51 51 49 41 39 40 37 35 38 41 40 37 38 40 35 27 26 31 35 36 36 35 33 33 37 41 40 40 34 24 22 21 20 20 19 19 18 18 18 18 18
55 52 53 54 56 55 54 52 48 49 50 49 49 48 47 46 45 43 41 41 42 44 44 44 44 49 50 48 48 50 54 57 58 56 56 56 55 53 50 49 46 47 49 51 53 54 53 48 39 38 40 39 39 43 43 38 36 38 38 31 27 30 34 35 37 36 34 34 35 36 35 34 30 24 23 21 21 20 19 19 19 18 18 18 17
56 56 59 59 57 56 55 52 50 50 49 49 48 47 47 47 46 44 42 41 43 44 46 47 47 50 52 51 50 52 58 60 61 61 59 59 59 57 55 54 49 47 48 50 54 55 54 53 46 40 42 45 43 43 44 40 35 36 36 33 28 28 29 31 37 36 33 35 35 33 30 27 26 25 24 22 21 20 19 19 19 19 18 18 17
57 59 60 57 53 51 50 47 48 49 47 47 46 46 47 46 46 47 47 43 43 43 44 47 50 52 52 54 54 57 62 61 62 63 61 63 64 61 58 56 54 51 49 50 54 52 48 47 47 44 44 47 48 46 44 41 36 33 34 33 29 26 28 31 36 36 32 33 35 35 31 24 24 26 26 23 21 20 19 19 19 18 19 18 17
51 52 50 47 46 46 46 45 45 46 45 45 45 45 46 47 48 50 50 47 46 45 44 45 49 51 50 53 56 58 62 63 64 66 66 67 64 62 60 58 56 54 52 53 55 53 49 45 43 44 45 44 46 45 45 45 41 34 33 35 32 31 32 32 35 35 33 33 34 36 33 26 24 25 26 25 23 21 20 19 19 19 19 19 18
44 43 44 43 43 45 46 45 45 45 44 43 43 44 45 48 50 50 51 51 50 49 49 51 55 57 54 53 54 58 62 65 66 66 68 68 64 63 62 60 59 58 55 53 54 55 56 53 47 44 44 41 40 43 46 50 48 38 34 36 36 35 34 30 33 35 33 34 35 34 30 25 23 23 24 25 24 22 21 20 20 19 19 19 18
39 38 39 41 41 43 46 46 44 44 43 42 41 42 45 46 47 48 50 51 50 50 53 56 62 62 60 57 54 57 62 65 68 67 68 67 65 65 64 63 63 63 61 55 52 55 59 59 56 51 45 42 44 49 50 51 52 44 39 40 39 38 33 30 32 33 33 35 37 36 28 24 24 23 23 24 24 23 22 21 20 20 20 19 19
37 36 35 39 40 40 44 45 43 42 42 41 40 41 43 44 42 44 47 48 48 51 56 60 63 59 58 59 53 53 57 62 66 67 67 69 69 66 63 62 63 64 64 60 56 57 60 61 65 63 55 49 50 54 54 52 51 45 43 44 42 39 35 34 34 32 33 36 38 38 30 25 24 23 23 22 23 24 23 22 21 20 20 19 19
36 36 35 37 39 38 40 43 44 43 40 39 40 41 41 41 42 44 48 47 47 52 57 61 63 57 56 56 51 50 52 55 59 61 64 66 66 65 63 62 61 59 57 58 60 62 64 64 65 67 64 57 52 51 50 49 47 43 42 45 44 42 40 39 39 35 34 36 38 36 32 29 26 24 25 23 21 22 24 24 22 21 20 19 20
35 36 35 34 34 35 39 40 40 39 37 38 42 42 40 41 42 44 47 48 49 55 58 58 58 55 54 52 49 49 49 51 54 57 60 61 61 62 64 65 61 55 54 58 62 65 67 66 64 65 64 60 56 52 48 47 51 49 44 46 45 45 45 43 43 41 36 39 40 37 35 32 31 29 26 25 24 22 23 24 24 22 21 21 21
34 35 33 33 31 31 34 33 33 33 32 35 36 37 37 37 39 40 41 42 45 51 56 58 57 56 53 50 50 50 51 52 51 53 55 55 57 60 63 66 64 58 58 62 65 68 71 69 66 65 63 59 59 57 51 49 54 57 52 48 44 44 47 47 47 47 42 42 42 39 37 33 32 32 29 27 26 25 24 24 25 24 23 23 22
35 34 31 30 29 28 30 29 29 29 28 29 29 31 30 28 33 37 37 38 42 48 53 56 58 56 52 51 51 51 53 52 50 51 51 51 53 57 61 63 62 61 61 62 64 70 74 74 70 68 66 60 56 56 54 50 52 58 58 55 49 44 47 49 50 50 46 44 42 40 38 35 31 31 31 28 27 27 26 26 26 27 26 25 24
35 33 31 29 27 26 28 28 26 26 27 27 27 29 27 25 28 33 36 37 39 46 51 52 55 54 51 49 47 48 50 48 48 50 49 50 50 52 57 57 57 60 62 64 65 70 76 77 75 73 70 65 58 55 54 48 48 57 62 61 55 48 48 51 52 49 46 43 42 41 41 38 34 32 31 29 27 27 28 28 27 28 28 27 26
35 33 32 30 28 27 27 27 22 24 27 26 27 28 28 28 28 32 37 38 40 48 52 50 51 49 46 43 40 43 45 46 49 47 46 46 45 48 52 53 57 58 61 66 69 74 78 78 79 79 76 71 65 59 54 46 44 55 64 64 58 51 48 51 52 49 45 42 39 40 43 43 40 36 33 32 29 26 26 27 28 28 29 29 28
37 35 33 31 30 29 27 22 18 22 27 26 28 30 29 29 30 32 36 38 43 51 55 51 48 42 40 40 38 40 40 44 50 49 49 46 43 47 48 50 55 59 64 70 73 78 79 77 78 80 79 77 74 67 60 50 43 49 59 62 62 58 51 50 50 46 42 40 37 38 43 46 46 42 37 35 33 29 25 25 26 28 29 30 29
38 35 34 33 31 29 23 19 18 23 25 24 26 28 28 30 32 33 32 33 37 42 46 48 48 43 42 43 42 43 41 41 50 53 54 53 49 49 48 50 57 64 69 72 74 77 78 77 76 76 79 81 80 76 71 60 48 48 53 54 59 60 54 52 51 46 39 36 37 39 42 45 46 45 40 36 35 33 29 27 26 28 29 29 29
39 36 35 34 30 24 20 19 21 22 22 21 21 21 23 26 28 29 27 29 33 34 35 36 41 44 46 45 43 46 47 46 50 53 55 56 55 54 54 58 66 74 76 72 69 72 75 75 74 76 81 83 82 81 80 70 55 51 54 53 53 53 52 54 54 51 46 39 39 41 42 44 44 43 41 38 36 35 33 32 30 30 30 30 30
41 36 33 31 24 20 18 19 20 21 21 20 19 20 23 26 25 24 26 28 28 29 30 29 31 38 42 42 42 44 46 45 46 49 53 55 54 56 60 66 71 73 73 71 68 72 76 74 72 75 79 81 80 80 84 79 66 58 58 56 53 53 53 55 55 54 50 45 44 44 43 42 40 40 40 39 37 34 35 36 35 33 32 32 32
42 34 30 27 21 19 19 19 20 20 21 20 20 22 25 29 27 23 24 26 24 24 26 27 27 31 34 38 42 41 40 43 45 47 49 53 58 60 63 67 68 65 66 68 68 72 76 73 71 73 77 79 77 80 85 87 80 67 60 60 64 66 62 59 57 55 50 45 44 44 42 40 38 39 40 40 39 36 35 37 39 38 36 34 32
43 34 30 28 20 19 19 18 20 20 21 21 20 21 24 28 28 25 26 26 24 24 25 26 26 27 28 30 34 34 35 41 45 44 42 47 58 62 62 63 60 59 62 64 66 69 71 71 71 71 76 80 79 80 84 89 88 76 70 73 78 80 77 72 65 58 54 49 43 41 41 42 42 41 40 41 41 38 37 37 37 38 37 35 33
43 33 31 31 22 18 20 18 19 21 22 21 21 25 28 29 30 31 29 26 24 24 26 27 27 28 27 27 29 31 33 37 40 41 38 39 46 50 54 58 57 56 59 63 66 68 69 70 71 70 73 78 79 80 83 88 90 83 82 86 85 84 85 85 77 68 61 56 49 43 40 42 44 45 44 45 45 43 40 39 37 36 36 36 35
41 33 33 34 26 19 19 19 20 23 22 21 26 32 33 32 32 32 28 24 22 22 24 25 27 27 28 28 29 29 29 31 35 36 35 35 37 38 39 44 49 51 54 60 64 67 67 66 67 71 74 75 76 78 80 84 85 84 85 86 84 84 85 87 86 81 74 68 60 53 47 45 43 44 45 46 47 48 46 43 42 41 39 38 37
42 35 35 37 32 21 19 21 21 22 22 25 32 35 34 32 32 32 28 23 21 23 25 25 24 22 21 21 20 23 25 25 27 27 29 32 32 32 30 30 33 37 42 50 57 62 63 62 63 69 74 73 71 72 76 80 82 81 80 80 82 83 83 85 87 87 84 80 74 68 63 57 51 48 47 46 47 49 49 47 48 49 47 44 41
45 38 39 40 36 26 22 22 22 22 24 29 33 33 35 35 33 33 29 24 22 24 23 23 24 20 17 16 13 19 28 27 26 24 25 27 27 27 27 24 25 28 30 37 46 54 57 59 62 67 70 70 67 66 70 76 77 74 74 78 81 80 81 84 87 89 88 86 84 80 77 71 64 60 56 53 53 52 51 48 48 49 51 54 50
47 41 42 42 40 34 27 24 24 24 26 29 31 31 33 34 32 33 30 22 19 20 18 18 23 21 16 14 13 20 26 27 27 27 25 25 25 26 25 24 25 27 28 30 35 42 48 54 60 64 66 66 62 61 67 72 72 72 74 77 78 78 80 82 86 88 89 88 87 85 84 82 77 71 67 64 64 62 58 55 54 52 53 57 56
48 44 45 44 43 40 32 26 26 26 26 28 30 29 31 33 31 31 27 17 14 19 20 20 24 24 19 16 17 20 22 24 25 27 26 25 23 24 25 25 25 26 28 29 30 33 39 47 53 57 60 60 57 57 63 68 70 71 73 75 77 78 81 83 84 86 86 86 85 85 86 86 84 80 76 73 70 67 64 64 64 62 60 64 63
49 45 47 47 45 44 37 29 28 28 28 29 30 30 32 33 30 28 25 19 20 24 23 24 27 26 23 19 18 17 17 19 19 20 23 25 25 25 24 24 24 26 26 27 28 30 33 39 45 50 56 59 56 55 59 64 68 69 72 77 79 77 78 82 83 84 87 87 85 84 84 84 86 87 85 81 77 72 69 66 66 65 64 72 76
54 47 48 50 48 48 41 32 30 31 29 30 31 33 36 35 32 31 29 25 27 27 24 25 25 21 19 18 17 16 18 19 17 19 22 23 25 26 25 24 25 24 24 24 26 27 29 31 38 43 47 52 55 57 58 60 64 66 69 74 74 73 77 82 84 85 86 86 85 83 83 83 83 85 88 88 86 81 76 71 68 65 64 70 77
60 52 48 52 51 50 44 35 32 33 31 32 33 35 38 36 34 36 34 28 28 25 21 22 20 16 17 21 22 21 23 22 21 25 25 21 22 25 26 26 25 24 24 24 23 24 25 25 31 35 38 45 51 54 56 58 62 64 66 68 68 71 79 82 84 84 83 83 84 83 83 83 82 80 82 84 85 84 83 80 77 75 74 73 74
59 56 49 51 53 51 47 41 37 36 34 33 35 38 39 37 36 38 35 30 27 21 18 17 15 15 16 23 25 19 17 18 17 19 20 16 17 21 24 25 25 25 23 20 17 17 17 16 19 22 28 38 43 45 47 51 56 58 61 65 64 65 73 75 75 79 81 81 80 76 73 77 79 76 73 71 72 76 81 85 84 83 84 85 82
58 63 57 51 54 54 51 48 44 40 37 35 36 40 41 38 38 39 37 32 25 20 19 15 13 14 14 16 20 17 15 14 14 14 14 12 13 14 16 19 21 22 21 19 14 11 10 10 11 12 16 22 28 34 37 36 40 44 50 56 54 54 60 63 65 71 74 70 65 62 57 57 61 62 60 59 59 63 70 79 83 82 82 84 83
55 68 67 57 56 57 56 54 49 45 42 38 37 41 42 38 37 39 38 33 25 22 20 15 13 15 15 16 20 21 19 14 13 13 12 11 12 11 11 13 15 17 20 20 18 15 13 12 11 11 11 12 15 20 22 19 23 29 34 39 41 43 48 50 51 55 55 48 44 41 36 32 34 37 41 46 49 51 55 64 72 76 78 78 78